Regional Weather Roundup
Issued by NWS

Home | Current Version | Previous Version | Graphics & Text | Print | Product List | Glossary Off
Versions: 1 2 3 4 5 6 7 8 9 10 11 12 13 14 15 16 17 18 19 20 21 22 23 24 25 26 27 28 29 30 31 32 33 34 35 36 37 38 39 40 41 42 43 44 45 46 47 48 49 50

000
ASUS43 KTOP 280308
RWRKS

WEATHER ROUNDUP FOR KANSAS
NATIONAL WEATHER SERVICE GOODLAND KS
1000 PM CDT WED JUL 27 2016

NOTE:  "FAIR" INDICATES FEW OR NO CLOUDS BELOW 12,000 FEET WITH NO
SIGNIFICANT WEATHER AND/OR OBSTRUCTIONS TO VISIBILITY.

KSZ001>006-013>018-027>032-041>047-280400-
NORTHWEST KANSAS

CITY           SKY/WX    TMP DP  RH WIND       PRES   REMARKS
GOODLAND       CLOUDY    74  65  73 SE5       30.10R
HAYS           CLEAR     81  64  57 NE5       30.02R
HILL CITY      CLEAR     77  68  73 NE8       30.05R
RUSSELL        CLEAR     81  65  58 E9        30.00R
$$

KSZ061>065-074>080-084>089-280400-
SOUTHWEST KANSAS

CITY           SKY/WX    TMP DP  RH WIND       PRES   REMARKS
DODGE CITY     CLEAR     74  70  87 CALM      30.04R
ELKHART          N/A     68  62  81 MISG        N/A
GARDEN CITY    CLEAR     74  68  81 S5        30.05R
GREAT BEND     CLEAR     81  66  61 E6        30.00R
LIBERAL        CLOUDY    72  64  78 SW8       30.07R
PRATT          PTCLDY    79  65  60 E6        29.99R
$$

KSZ066>073-081>083-090>101-280400-
SOUTHEAST KANSAS

CITY           SKY/WX    TMP DP  RH WIND       PRES   REMARKS
CHANUTE        CLOUDY    81  77  88 CALM      29.94R
COFFEYVILLE    CLOUDY    80  76  87 CALM      29.93R
HUTCHINSON     CLEAR     79  71  76 CALM      29.98R
MEDICINE LODGE   N/A     82  65  56 E8        29.96R
NEWTON         CLEAR     80  73  79 E3        29.99R
PARSONS        MOCLDY    79  76  90 CALM      29.95R
WICHITA INTL   PTCLDY    84  70  62 E7        29.95R
WICHITA JABRA  CLEAR     78  72  81 NE3       29.96R
WICHITA MCCONL CLEAR     83  72  68 SE6       29.96R
WINFIELD       CLOUDY    82  73  74 SE5       29.96R
$$

KSZ007>012-019>026-033>040-048>060-102>105-280400-
NORTHEAST KANSAS

CITY           SKY/WX    TMP DP  RH WIND       PRES   REMARKS
CONCORDIA      CLEAR     77  70  79 N5        30.00R
EMPORIA        PTCLDY    78  75  90 S3        29.95R
LAWRENCE       CLEAR     74  71  91 CALM      29.94R
MANHATTAN      CLEAR     77  70  79 CALM      29.96R
MARYSVILLE     CLEAR     77  68  73 N3        29.99R
OLATHE IND     CLEAR     75  71  87 N7        29.96R
OLATHE EXE     CLEAR     81  70  69 N5        29.95R
SALINA         CLEAR     86  71  60 NE6       29.98R
TOPEKA BILLARD   N/A     78  73  84 CALM      29.95R
TOPEKA FORBES  CLEAR     77  73  87 CALM      29.96R
$$



USA.gov is the U.S. government's official web portal to all federal, state and local government web resources and services.